Regional Weather Roundup
Issued by NWS

Home | Current Version | Previous Version | Graphics & Text | Print | Product List | Glossary On
Versions: 1 2 3 4 5 6 7 8 9 10 11 12 13 14 15 16 17 18 19 20 21 22 23 24 25 26 27 28 29 30 31 32 33 34 35 36 37 38 39 40 41 42 43 44 45 46 47 48 49 50
000
ASUS43 KLOT 040513
RWRIL

ILLINOIS REGIONAL WEATHER ROUNDUP
NATIONAL WEATHER SERVICE CHICAGO/ROMEOVILLE IL
1200 AM CDT FRI SEP 04 2015

NOTE: "FAIR" INDICATES FEW OR NO CLOUDS BELOW 12,000 FEET WITH NO
SIGNIFICANT WEATHER AND/OR OBSTRUCTIONS TO VISIBILITY.

* THESE STATIONS ARE NOT UNDER NWS QUALITY CONTROL. THEY ALSO MAY NOT
  REPORT WEATHER SUCH AS PRECIPITATION OR FOG.

ILZ001-002-007-009-015-016-024-040600-
NORTHWEST ILLINOIS

CITY           SKY/WX    TMP DP  RH WIND       PRES   REMARKS
MOLINE         CLEAR     78  70  76 CALM      29.92S HX  80
STERLING*      CLEAR     72  72 100 CALM      29.92R
SAVANNA*       CLEAR     73  71  92 CALM      29.93S
$$

ILZ003-004-008-010-011-017-018-040600-
NORTH CENTRAL ILLINOIS

CITY           SKY/WX    TMP DP  RH WIND       PRES   REMARKS
ROCKFORD       PTCLDY    72  66  81 E6        29.97R
FREEPORT*      CLEAR     71  70  96 NE5       29.97R FOG
ROCHELLE*      PTCLDY    71  69  92 E8        29.95S
DE KALB*       PTCLDY    69  67  93 E3        29.98R
PERU*          CLEAR     76  69  77 CALM      29.94R
$$

ILZ005-006-012>014-019>023-040600-
NORTHEAST ILLINOIS

CITY           SKY/WX    TMP DP  RH WIND       PRES   REMARKS
CHICAGO-OHARE  MOCLDY    71  67  87 NE8       29.96S
CHICAGO-MIDWAY PTCLDY    74  67  78 E9        29.96R
AURORA         PTCLDY    72  67  84 NE7       29.96R
LANSING*       CLEAR     71  67  87 NE7       29.96S
JOLIET*        MOCLDY    74  70  85 E3        29.95S
WAUKEGAN       MOCLDY    67  65  93 N3        29.97R
DUPAGE AIRPORT PTCLDY    71  65  81 NE7       29.96R
KANKAKEE*      PTCLDY    73  70  92 NE7       29.96R
WHEELING       MOCLDY    70  67  90 NE5       29.98R
MORRIS*        PTCLDY    73  69  89 NE3       29.94R FOG
ROMEOVILLE*    PTCLDY    72  66  82 E7        29.96S
NORTHERLY ISL    N/A     69  66  90 N5          N/A
$$

LMZ740>746-040600-
SOUTHERN LAKE MICHIGAN

STATION/POSITION SKY/WX   TEMP    WIND        PRES    VSBY  WAVE
                          AIR SEA DIR/SP/G                  HT/PER
                          (F)     (DEG/KT/KT) (MB)    (MI)  (FT/S)
SOUTHERN BUOY              69 71  330/  8/ 10 1013.8R         1/ 3
WILMETTE HARBOR            67 71  150/  6/  8   N/A           2/ 2
HARRISON CRIB              71      40/  7/  8   N/A
BURNHAM HARBOR             69      10/  3/  5   N/A
CALUMET HARBOR             72      20/  6/  9   N/A
BURNS HARBOR               72      30/ 11/ 13 1014.9R
MICHIGAN CITY              71      10/ 12/ 13   N/A
MICHIGAN CITY 6N           72 73   50/  8/ 10   N/A           2/ 4
ST. JOSEPH                 71 73   50/  8/ 10   N/A           2/ 3
$$

ILZ025>027-034>036-040-047-049-050-058-095>099-040600-
WEST-CENTRAL ILLINOIS

CITY           SKY/WX    TMP DP  RH WIND       PRES   REMARKS
QUINCY         CLEAR     78  67  68 S6        29.95S HX  80
GALESBURG*     CLEAR     73  69  88 CALM      29.94S
MACOMB*        CLEAR     71  68  89 S3        29.96F
JACKSONVILLE*  CLEAR     76  70  81 S3        29.95S
PITTSFIELD*    CLEAR     78  68  71 S3        29.96S HX  80
$$

ILZ028>032-037-038-041>044-048-051>054-059>061-040600-
CENTRAL ILLINOIS

CITY           SKY/WX    TMP DP  RH WIND       PRES   REMARKS
PONTIAC        CLEAR     70  69  97 CALM      29.95S
BLOOMINGTON    CLEAR     75  69  81 SW5       29.97S
DECATUR        CLEAR     75  67  76 SW6       29.96S
PEORIA         FAIR      80  68  66 S3        29.94S HX  83
LACON*         CLEAR     72  69  90 CALM      29.93S
LINCOLN*       CLEAR     72  65  79 CALM      29.94S
SPRINGFIELD    PTCLDY    74  67  78 SW3       29.95F
TAYLORVILLE    CLEAR     70  68  94 S3        29.97S
$$

ILZ033-039-045-046-055>057-062-063-040600-
EAST-CENTRAL ILLINOIS

CITY           SKY/WX    TMP DP  RH WIND       PRES   REMARKS
CHAMPAIGN      CLEAR     73  68  84 W5        29.96S
RANTOUL*       CLEAR     76  70  81 SW6       29.96R
MATTOON          N/A     77  67  71 SW6       29.95F
PARIS*         CLEAR     73  69  88 SW6       29.97S
$$

ILZ079-100>102-040600-
SOUTHWEST ILLINOIS

CITY           SKY/WX    TMP DP  RH WIND       PRES   REMARKS
ALTON          CLEAR     71  69  94 CALM      29.96S
CAHOKIA*       CLEAR     75  70  84 S3        29.95S
SPARTA*        CLEAR     73  70  89 CALM      29.97F
$$

ILZ064>066-069>071-074>076-080>082-084>086-088>090-092>094-040600-
SOUTH-CENTRAL ILLINOIS

CITY           SKY/WX    TMP DP  RH WIND       PRES   REMARKS
CARBONDALE     CLEAR     71  69  93 CALM      29.96F
CAIRO*           N/A     69  69 100 CALM      29.96S FOG
EFFINGHAM*     CLEAR     71  68  90 CALM      29.98S
MARION         CLEAR     75  72  88 CALM      29.97S
MT. VERNON     CLEAR     68  63  83 CALM      29.98S
CENTRALIA*     CLEAR     72  71  97 CALM      29.96S
SALEM*         CLEAR     71  68  90 CALM      29.97S
METROPOLIS*    CLEAR     70  70 100 CALM      29.97F FOG
$$

ILZ067-068-072-073-078-083-087-091-040600-
SOUTHEAST ILLINOIS

CITY           SKY/WX    TMP DP  RH WIND       PRES   REMARKS
LAWRENCEVILLE  CLEAR     74  70  87 CALM      29.97S
FLORA*         CLEAR     70  67  89 CALM      29.97S
FAIRFIELD*     CLEAR     70  69  94 CALM      29.95S
HARRISBURG*    CLEAR     70  68  94 CALM      29.97S
ROBINSON*      CLEAR     69  68  96 CALM      29.97S
CARMI*         CLEAR     69  68  98 CALM      29.96S
$$

ABBREVIATIONS USED IN REMARKS
   TC - TEMPERATURE IN CELSIUS
  WCI - WIND CHILL INDEX
   HX - HEAT INDEX
  VSB - VISIBILITY
$$




USA.gov is the U.S. government's official web portal to all federal, state and local government web resources and services.